Location: Zagreb
(45.8000°N, 16.0000°E)
Time: 08:57:13
(UTC+02:00)

Courier 1B Rocket - Pass Details

Date: 09 August 2022
Orbit: 920 x 1202 km, 28.2° (Epoch: 25 September)

Event Time Altitude Azimuth Distance (km) Brightness Sun altitude
Rises 20:25:48 0° 240° (WSW) 3,642 8.5 -2.7°
Reaches altitude 10° 20:29:24 10° 220° (SW) 2,742 7.6 -3.3°
Maximum altitude 20:33:24 17° 183° (S) 2,337 6.8 -3.9°
Drops below altitude 10° 20:37:35 10° 145° (SE) 2,864 6.9 -4.5°
Enters shadow 20:39:47 - 133° (SE) 3,408 7.2 -4.9°
Sets 20:41:28 0° 127° (SE) 3,880 - -5.1°
